Stations météo

Publicité
Cherbourg, France (7024): Température de l'air & dewpoint: 04.12.2019 19:00:00 - 10.12.2019 19:00:00 (CET)Cherbourg, France (7024): Température de l'air 5cm: 04.12.2019 19:00:00 - 10.12.2019 19:00:00 (CET)Cherbourg, France (7024): Température de l'air -20cm & Température de l'air -100cm: 04.12.2019 19:00:00 - 10.12.2019 19:00:00 (CET)Cherbourg, France (7024): Vitesse du vent & gusts: 04.12.2019 19:00:00 - 10.12.2019 19:00:00 (CET)Cherbourg, France (7024): Direction du vent: 04.12.2019 19:00:00 - 10.12.2019 19:00:00 (CET)Cherbourg, France (7024): reduced air pressure: 04.12.2019 19:00:00 - 10.12.2019 19:00:00 (CET)Cherbourg, France (7024): visibility: 04.12.2019 19:00:00 - 10.12.2019 19:00:00 (CET)Cherbourg, France (7024): Ensoleillement: 04.12.2019 19:00:00 - 10.12.2019 19:00:00 (CET)Cherbourg, France (7024): Quantités de précipitations: 04.12.2019 19:00:00 - 10.12.2019 19:00:00 (CET)
Date & Time tt [°C] td [°C] tt 5cm [°C] tt -20cm [°C] tt -100cm [°C] ff [km/h] ff [knt] fx [km/h] fx [knt] dd ppp [hPa] vv [km] sd [min] rr [mm]
10.12.2019 19:00:00 10,3 8,7 - - - 50 27 80 43 SSW 1010,6 18 - -
10.12.2019 18:00:00 9,6 8,5 8,9 7,8 9,5 47 25 87 47 SSW 1011,3 9 0 0,2
10.12.2019 17:00:00 9,6 8,2 8,9 7,8 9,5 52 28 81 44 SSW 1011,3 6 10 0,0
10.12.2019 16:00:00 9,4 7,5 8,8 7,7 9,5 39 21 70 38 S 1012,6 15 0 0,0
10.12.2019 15:00:00 8,8 7,1 8,4 7,7 9,5 40 22 77 41 S 1014,2 15 0 0,0
10.12.2019 14:00:00 8,4 6,7 8,2 7,7 9,5 46 25 76 41 S 1015,3 16 0 0,0
10.12.2019 13:00:00 8,0 6,8 6,9 7,7 9,6 45 24 76 41 S 1017,1 14 0 0,0
10.12.2019 12:00:00 7,1 6,0 6,8 7,7 9,5 39 21 69 37 SSW 1018,9 10 0 0,2
10.12.2019 11:00:00 7,6 5,4 6,9 7,7 9,5 40 21 54 29 SSW 1019,9 16 0 0,0
10.12.2019 10:00:00 6,9 5,4 5,5 7,7 9,5 34 19 51 28 S 1021,2 13 0 0,0
10.12.2019 09:00:00 5,9 5,3 4,8 7,8 9,5 31 17 51 28 SSW 1022,3 9 0 0,0
10.12.2019 08:00:00 5,2 4,9 4,3 7,8 9,5 27 15 38 21 S 1023,0 8 0 0,0
10.12.2019 07:00:00 4,6 4,3 3,0 7,9 9,5 18 10 25 13 S 1024,0 1,8 0 0,0
10.12.2019 06:00:00 3,5 2,9 1,9 7,9 9,5 13 7 23 12 S 1024,7 8 0 0,0
10.12.2019 05:00:00 2,9 1,7 1,1 8,0 9,5 13 7 20 11 S 1026,1 15 0 0,0
10.12.2019 04:00:00 2,8 1,2 0,9 8,0 9,5 11 6 17 9 S 1026,6 16 0 0,0
10.12.2019 03:00:00 2,7 0,8 -0,5 8,1 9,5 12 7 18 10 SSW 1027,1 18 0 0,0
10.12.2019 02:00:00 3,6 0,8 -1,0 8,2 9,5 13 7 16 8 SW 1027,3 20 0 0,0
10.12.2019 01:00:00 3,0 0,1 -0,3 8,2 9,5 10 5 13 7 SW 1027,4 20 0 0,0
10.12.2019 00:00:00 4,2 1,1 1,0 8,2 9,5 11 6 14 8 WSW 1027,3 20 0 0,0
09.12.2019 23:00:00 7,4 1,9 4,7 8,2 9,5 9 5 16 9 NW 1027,3 41 0 0,0
09.12.2019 22:00:00 7,5 2,0 4,6 8,3 9,5 8 4 23 12 NNW 1026,9 38 0 0,0
09.12.2019 21:00:00 7,7 1,3 5,4 8,4 9,5 11 6 27 15 NNW 1026,4 45 0 0,0
09.12.2019 20:00:00 8,2 1,3 6,2 8,4 9,5 15 8 40 21 NNW 1025,6 43 0 0,0
09.12.2019 19:00:00 8,7 2,3 7,3 8,4 9,5 22 12 44 24 NNW 1024,9 45 0 0,0
09.12.2019 18:00:00 8,7 2,3 7,4 8,4 9,5 22 12 49 27 NW 1023,9 20 0 0,0
09.12.2019 17:00:00 8,9 2,5 7,8 8,4 9,5 26 14 55 30 NW 1022,5 19 14 0,0
09.12.2019 16:00:00 9,0 2,3 8,4 8,4 9,5 29 16 53 29 NW 1021,3 18 22 0,0
09.12.2019 15:00:00 9,6 2,2 9,1 8,4 9,5 27 15 57 31 NW 1019,9 18 28 0,0
09.12.2019 14:00:00 9,7 3,9 9,5 8,4 9,5 27 15 60 32 NW 1018,3 18 31 0,0
09.12.2019 13:00:00 9,7 4,1 9,4 8,4 9,5 31 17 61 33 NW 1017,1 20 4 0,0
09.12.2019 12:00:00 9,9 4,7 9,5 8,4 9,5 29 16 71 38 NW 1015,5 17 5 0,0
09.12.2019 11:00:00 9,9 4,3 9,2 8,4 9,5 36 20 81 44 NW 1013,5 18 8 0,0
09.12.2019 10:00:00 9,9 4,5 9,1 8,4 9,5 42 23 86 47 NW 1011,3 18 0 0,0
09.12.2019 09:00:00 9,9 4,7 9,1 8,4 9,5 44 24 81 44 NW 1008,9 18 0 0,0
09.12.2019 08:00:00 10,0 5,6 9,3 8,4 9,5 49 26 98 53 NW 1006,6 17 0 0,0
09.12.2019 07:00:00 10,3 5,5 8,5 8,4 9,5 58 31 94 51 WNW 1003,9 13 0 0,0
09.12.2019 06:00:00 9,6 6,3 7,9 8,4 9,5 57 31 103 56 WNW 1002,2 9 0 0,0
09.12.2019 05:00:00 9,8 5,6 8,9 8,4 9,5 62 34 100 54 WNW 1001,0 10 0 0,0
09.12.2019 04:00:00 9,8 5,6 7,7 8,4 9,5 55 30 95 51 WNW 1000,6 11 0 0,0
09.12.2019 03:00:00 9,0 5,9 6,7 8,4 9,5 53 28 84 45 W 1000,2 9 0 0,4
09.12.2019 02:00:00 7,3 5,8 4,8 8,5 9,5 42 23 104 56 W 1000,4 8 0 1,6
09.12.2019 01:00:00 9,0 5,4 6,5 8,5 9,5 53 28 95 52 W 1000,3 9 0 0,2
09.12.2019 00:00:00 7,1 5,9 5,4 8,6 9,5 44 24 85 46 W 1000,5 9 0 2,4
08.12.2019 23:00:00 7,9 5,2 5,7 8,6 9,5 44 24 70 38 WSW 1001,7 13 0 0,4
08.12.2019 22:00:00 6,7 5,0 4,7 8,6 9,5 38 20 79 42 WSW 1003,2 17 0 2,2
08.12.2019 21:00:00 7,2 4,5 5,1 8,7 9,5 32 17 89 48 WSW 1004,1 16 0 0,2
08.12.2019 20:00:00 8,9 3,3 7,4 8,7 9,5 43 23 67 36 W 1004,3 20 0 0,0
08.12.2019 19:00:00 8,9 3,5 8,1 8,7 9,5 40 21 70 38 W 1004,9 20 0 0,0
08.12.2019 18:00:00 9,3 4,9 8,5 8,8 9,5 40 22 78 42 W 1005,2 15 0 0,0
08.12.2019 17:00:00 9,3 4,3 8,2 8,7 9,5 39 21 67 36 W 1005,5 18 1 0,0
08.12.2019 16:00:00 8,6 5,5 7,3 8,7 9,5 40 22 88 48 W 1005,9 20 13 0,2
08.12.2019 15:00:00 8,9 6,5 7,7 8,7 9,5 46 25 79 43 W 1006,4 3,5 6 0,6
08.12.2019 14:00:00 10,4 6,0 9,4 8,7 9,5 45 24 69 38 W 1006,7 14 28 0,0
08.12.2019 13:00:00 9,5 7,8 8,6 8,7 9,5 46 25 72 39 W 1007,6 10 39 0,2
08.12.2019 12:00:00 9,9 7,7 8,9 8,7 9,5 36 19 58 32 WSW 1008,3 10 25 0,0
08.12.2019 11:00:00 10,1 6,2 9,4 8,7 9,5 38 20 60 32 W 1008,3 11 11 0,0
08.12.2019 10:00:00 9,9 6,6 8,9 8,7 9,5 35 19 61 33 W 1008,0 11 0 0,0
08.12.2019 09:00:00 10,0 7,1 9,3 8,6 9,5 38 20 64 35 W 1007,3 10 0 0,0
08.12.2019 08:00:00 10,8 8,7 10,1 8,6 9,5 42 23 66 36 W 1006,7 12 0 0,0
08.12.2019 07:00:00 11,5 10,6 10,9 8,6 9,5 44 24 68 37 W 1006,0 20 0 0,9
08.12.2019 06:00:00 11,3 10,8 10,0 8,6 9,5 39 21 62 34 SW 1005,8 2,7 0 0,8
08.12.2019 05:00:00 10,3 9,8 9,4 8,6 9,5 37 20 65 35 SW 1006,4 4,4 0 3,2
08.12.2019 04:00:00 9,7 8,9 8,8 8,5 9,4 46 25 74 40 SSW 1007,2 3,2 0 1,8
08.12.2019 03:00:00 9,5 7,8 8,9 8,5 9,5 46 25 70 38 SSW 1007,7 20 0 0,0
08.12.2019 02:00:00 9,2 7,5 8,8 8,6 9,5 41 22 63 34 SSW 1009,0 45 0 0,0
08.12.2019 01:00:00 9,3 7,4 8,8 8,6 9,5 41 22 59 32 SSW 1010,9 50 0 0,0
08.12.2019 00:00:00 9,8 7,6 9,4 8,5 9,5 34 18 54 29 SSW 1012,2 58 0 0,0
07.12.2019 23:00:00 9,8 8,2 9,2 8,5 9,5 33 18 51 27 SSW 1012,7 43 0 0,0
07.12.2019 22:00:00 9,8 8,2 9,3 8,5 9,5 27 15 41 22 SSW 1013,9 40 0 0,0
07.12.2019 21:00:00 9,6 8,2 9,0 8,5 9,5 22 12 35 19 SSW 1014,9 38 0 0,0
07.12.2019 20:00:00 9,7 7,6 8,6 8,5 9,5 22 12 33 18 SW 1015,7 58 0 0,0
07.12.2019 19:00:00 9,2 7,8 8,5 8,5 9,5 20 11 30 16 SW 1016,0 48 0 0,0
07.12.2019 18:00:00 9,6 7,9 9,1 8,4 9,5 21 11 34 18 SW 1016,2 46 0 0,0
07.12.2019 17:00:00 9,8 7,7 9,6 8,4 9,5 20 11 28 15 SW 1016,5 52 0 0,0
07.12.2019 16:00:00 10,1 7,0 9,2 8,4 9,5 18 10 28 15 WSW 1016,7 60 0 0,0
07.12.2019 15:00:00 10,2 7,4 10,0 8,4 9,5 19 11 31 17 WSW 1016,8 17 4 0,0
07.12.2019 14:00:00 10,4 7,1 9,8 8,3 9,5 23 13 34 19 W 1017,3 60 0 0,0
07.12.2019 13:00:00 10,7 7,4 11,0 8,3 9,5 20 11 29 16 WSW 1017,2 59 12 0,0
07.12.2019 12:00:00 10,7 8,5 9,6 8,2 9,5 14 8 28 15 WSW 1017,3 20 23 0,0
07.12.2019 11:00:00 9,5 8,1 9,0 8,2 9,4 10 5 16 9 SW 1017,8 19 0 0,0
07.12.2019 10:00:00 8,9 7,5 5,2 8,3 9,5 12 6 18 10 WSW 1017,5 19 0 0,0
07.12.2019 09:00:00 7,1 6,0 5,5 8,3 9,5 9 5 16 9 SW 1017,3 17 0 0,0
07.12.2019 08:00:00 7,5 6,1 6,3 8,4 9,5 11 6 19 10 SW 1016,6 17 0 0,0
07.12.2019 07:00:00 7,1 5,9 5,4 8,4 9,5 14 7 21 11 W 1016,3 18 0 0,0
07.12.2019 06:00:00 8,9 7,2 7,1 8,4 9,5 14 8 23 13 W 1015,7 17 0 0,0
07.12.2019 05:00:00 8,2 7,0 7,3 8,4 9,5 16 8 24 13 W 1015,2 16 0 0,0
07.12.2019 04:00:00 8,7 7,3 7,4 8,4 9,5 16 9 22 12 WSW 1014,9 15 0 0,0
07.12.2019 03:00:00 7,9 6,5 6,6 8,4 9,5 18 10 24 13 W 1014,6 14 0 0,0
07.12.2019 02:00:00 7,6 6,4 6,6 8,5 9,5 16 9 23 13 W 1014,3 13 0 0,0
07.12.2019 01:00:00 8,5 6,6 7,5 8,5 9,5 17 9 32 17 W 1014,0 17 0 0,0
07.12.2019 00:00:00 8,9 7,2 7,9 8,5 9,5 19 10 27 15 W 1014,0 15 0 0,0
06.12.2019 23:00:00 9,3 7,6 8,5 8,4 9,5 20 11 38 21 W 1013,4 16 0 0,0
06.12.2019 22:00:00 9,7 8,0 8,5 8,4 9,5 27 15 45 25 W 1012,8 15 0 0,0
06.12.2019 21:00:00 9,9 8,3 9,1 8,4 9,5 26 14 42 23 W 1011,7 17 0 0,0
06.12.2019 20:00:00 10,7 9,5 10,1 8,4 9,5 28 15 51 28 W 1010,9 10 0 0,0
06.12.2019 19:00:00 10,8 9,1 10,0 8,3 9,5 40 22 59 32 W 1009,9 13 0 0,0
06.12.2019 18:00:00 10,8 9,7 9,7 8,3 9,5 39 21 65 35 W 1009,0 7 0 0,0
06.12.2019 17:00:00 10,3 9,4 9,8 8,2 9,5 48 26 67 36 W 1008,7 2,7 0 0,4
06.12.2019 16:00:00 11,3 10,7 11,0 8,1 9,5 44 24 69 37 W 1008,7 4,8 0 0,5
06.12.2019 15:00:00 11,4 10,9 11,0 8,0 9,5 40 21 59 32 WSW 1008,6 1,9 0 0,4
06.12.2019 14:00:00 11,1 10,6 10,5 8,0 9,5 39 21 66 36 SW 1009,6 1,9 0 1,0
06.12.2019 13:00:00 10,7 10,2 10,1 7,9 9,5 42 23 63 34 SW 1010,1 1,5 0 1,0
06.12.2019 12:00:00 10,3 9,8 9,9 7,9 9,5 38 21 60 33 SW 1011,1 1,9 0 1,0
06.12.2019 11:00:00 10,1 9,6 9,7 7,8 9,5 37 20 59 32 SW 1012,0 2,1 0 0,8
06.12.2019 10:00:00 9,9 9,4 9,4 7,8 9,6 36 19 56 30 SW 1012,3 3,6 0 0,4
06.12.2019 09:00:00 9,8 9,2 9,3 7,7 9,6 32 17 60 32 SW 1012,9 2,2 0 0,6
06.12.2019 08:00:00 9,7 9,1 9,2 7,7 9,6 36 20 56 30 SW 1013,4 4,4 0 0,6
06.12.2019 07:00:00 9,5 8,9 9,0 7,7 9,6 34 18 62 34 SW 1013,8 1,7 0 0,0
06.12.2019 06:00:00 9,4 8,6 8,9 7,6 9,6 39 21 59 32 SW 1014,0 3,4 0 0,0
06.12.2019 05:00:00 9,4 8,3 9,0 7,6 9,6 39 21 62 33 SW 1014,5 26 0 0,0
06.12.2019 04:00:00 9,5 8,4 8,7 7,6 9,6 36 19 54 29 SW 1015,0 17 0 0,0
06.12.2019 03:00:00 9,2 8,3 8,7 7,5 9,6 35 19 49 27 SW 1016,0 12 0 0,0
06.12.2019 02:00:00 9,2 7,8 8,8 7,5 9,6 30 16 51 28 SW 1016,5 11 0 0,0
06.12.2019 01:00:00 9,0 7,4 8,4 7,5 9,6 29 16 47 26 SW 1017,5 20 0 0,0
06.12.2019 00:00:00 8,6 7,1 7,9 7,4 9,6 28 15 49 27 SW 1018,1 20 0 0,0
05.12.2019 23:00:00 8,3 6,6 7,5 7,5 9,6 29 15 45 24 SW 1018,9 30 0 0,0
05.12.2019 22:00:00 8,2 6,5 7,3 7,4 9,6 28 15 39 21 SW 1019,7 35 0 0,0
05.12.2019 21:00:00 8,1 6,4 7,1 7,4 9,6 26 14 39 21 SW 1020,4 42 0 0,0
05.12.2019 20:00:00 7,9 6,5 7,2 7,4 9,6 23 12 35 19 SW 1020,7 15 0 0,2
05.12.2019 19:00:00 8,0 6,0 6,9 7,3 9,6 23 12 38 21 SW 1020,8 39 0 0,0
05.12.2019 18:00:00 7,4 6,0 6,7 7,3 9,6 15 8 23 12 SW 1021,0 20 0 0,0
05.12.2019 17:00:00 7,8 5,9 7,2 7,2 9,7 17 9 26 14 SSW 1021,1 12 18 0,0
05.12.2019 16:00:00 8,4 5,9 8,3 7,1 9,6 18 10 30 16 SSW 1021,3 20 29 0,0
05.12.2019 15:00:00 9,2 5,7 9,6 7,1 9,7 19 10 32 18 SW 1022,1 20 47 0,0
05.12.2019 14:00:00 8,8 5,7 8,7 7,0 9,7 20 11 31 17 SW 1022,5 17 12 0,0
05.12.2019 13:00:00 8,0 5,3 8,8 7,0 9,7 16 9 24 13 SW 1023,3 17 37 0,0
05.12.2019 12:00:00 7,2 5,0 6,9 7,0 9,7 11 6 20 11 SSW 1023,7 14 0 0,0
05.12.2019 11:00:00 6,4 4,2 4,5 7,0 9,7 13 7 18 10 SSW 1024,0 15 4 0,0
05.12.2019 10:00:00 4,5 2,8 0,4 7,0 9,7 12 7 14 8 SW 1024,0 18 32 0,0
05.12.2019 09:00:00 2,0 1,1 -0,3 7,1 9,7 9 5 12 6 SSW 1023,7 9 0 0,0
05.12.2019 08:00:00 4,3 2,6 1,2 7,1 9,7 3 2 16 9 SW 1023,2 20 0 0,0
05.12.2019 07:00:00 4,0 2,3 -0,4 7,1 9,7 6 4 9 5 W 1023,0 18 0 0,0
05.12.2019 06:00:00 3,8 1,8 0,4 7,1 9,8 5 3 8 5 WNW 1022,8 15 0 0,0
05.12.2019 05:00:00 5,7 2,9 1,6 7,1 9,7 5 3 11 6 NNW 1022,5 30 0 0,0
05.12.2019 04:00:00 5,3 2,1 2,6 7,1 9,8 8 4 17 9 NNW 1022,5 35 0 0,0
05.12.2019 03:00:00 5,8 2,6 4,3 7,1 9,8 8 4 17 9 N 1022,4 28 0 0,0
05.12.2019 02:00:00 4,6 4,2 3,9 7,1 9,8 4 2 12 6 WNW 1022,2 7 0 0,0
05.12.2019 01:00:00 3,7 3,6 2,7 7,1 9,8 4 2 9 5 W 1022,1 6 0 0,0
05.12.2019 00:00:00 2,5 2,4 1,9 7,1 9,8 4 2 10 5 SSW 1021,9 2,6 0 0,0
04.12.2019 23:00:00 2,1 2,0 1,5 7,1 9,8 5 3 8 4 S 1022,0 2,1 0 0,0
04.12.2019 22:00:00 2,8 2,7 1,0 7,1 9,8 4 2 6 3 W 1021,7 2,0 0 0,0
04.12.2019 21:00:00 2,3 2,2 1,9 7,1 9,8 2 1 5 3 SSE 1021,5 2,3 0 0,0
04.12.2019 20:00:00 1,8 1,7 1,1 7,1 9,8 3 1 7 4 S 1021,3 1,7 0 0,0
04.12.2019 19:00:00 1,4 1,3 0,7 7,1 9,8 6 3 8 4 E 1020,6 0,7 0 0,0

tt = Température de l'air
td = dewpoint
tt 5cm = Température de l'air 5cm
tt -20cm = Température de l'air -20cm
tt -100cm = Température de l'air -100cm
ff = Vitesse du vent
fx = gusts
dd = Direction du vent
ppp = reduced air pressure
vv = visibility
sd = Ensoleillement
rr = Quantités de précipitations

stations d'obs. à proximité